GFSSE_850_thetae_000.txt.gz
Theta_e
322 318 320 321 322 321 320 318 321 322 324 322 318 314 311 306 310 312 316 326 325 319 314 315 316 314 332 340 341 341 342 339 339 340 340 340 341 345 338 339 337 335 333
320 324 323 322 322 321 318 321 323 323 321 318 316 314 311 306 310 312 315 325 326 322 318 313 318 316 322 337 340 341 341 341 339 341 341 340 344 343 337 336 336 334 333
321 321 321 320 321 319 316 318 319 317 317 318 315 311 308 308 311 313 315 320 325 325 322 323 317 317 317 333 339 340 341 340 339 339 341 341 344 340 334 335 334 334 334
319 318 315 316 315 315 317 318 317 318 320 319 313 312 311 308 310 313 314 317 323 325 326 327 324 320 316 326 337 339 340 340 339 339 342 342 342 334 334 333 334 331 331
315 314 315 315 315 316 318 319 320 321 319 316 316 316 315 311 309 314 313 317 319 326 328 327 327 328 318 319 333 338 339 340 340 339 341 340 337 336 332 332 335 335 332
315 315 315 316 316 319 319 320 317 316 316 317 323 323 323 321 315 316 315 316 315 325 325 329 327 327 325 316 326 336 337 339 341 339 340 341 339 334 327 331 337 336 332
316 316 316 318 317 315 315 315 316 319 319 321 324 324 323 322 321 315 314 314 313 315 326 326 329 325 326 318 319 333 336 338 339 338 339 340 338 332 331 334 336 332 330
315 315 314 314 315 317 318 319 319 319 319 320 320 322 321 322 319 315 320 321 313 311 320 327 328 327 324 321 314 326 335 336 338 338 338 338 336 332 332 336 333 333 330
315 315 316 318 317 318 320 320 319 319 320 319 320 320 320 320 319 321 320 321 319 311 318 325 328 328 326 320 314 322 333 336 337 338 338 336 337 332 335 335 330 332 333
315 316 317 315 319 321 321 319 321 321 321 321 320 321 321 321 322 322 318 320 319 318 317 324 325 326 325 321 317 320 334 336 336 336 337 335 339 332 332 332 326 330 332
314 314 315 317 320 320 320 320 321 321 320 321 321 320 320 320 320 321 321 321 321 317 317 323 323 325 324 321 319 320 334 336 336 336 337 335 338 329 328 329 334 334 334
312 313 313 318 320 321 321 319 319 319 319 319 318 318 317 318 318 319 319 320 321 317 321 320 323 325 323 321 318 322 334 336 336 335 336 337 332 330 335 336 335 334 333
314 312 318 321 321 321 319 318 318 319 319 319 319 318 317 317 317 317 318 320 318 320 321 321 322 324 322 321 319 325 334 335 334 335 335 335 330 335 335 335 333 332 328
313 319 321 320 321 322 320 320 319 319 320 320 319 318 318 320 318 317 317 316 316 320 321 322 322 321 321 321 320 328 334 332 334 335 335 333 331 336 335 333 333 328 326
311 313 322 321 321 320 320 321 321 320 320 319 319 320 320 319 317 317 317 318 319 321 322 322 322 322 321 322 321 329 333 332 334 334 334 332 332 334 332 333 329 326 326
312 319 322 321 320 320 320 322 321 320 320 319 318 320 320 320 319 318 319 320 321 321 322 322 321 321 322 323 321 331 333 331 332 332 332 330 328 328 331 331 330 326 328
320 322 322 322 321 320 321 321 320 320 319 318 318 319 320 320 320 321 321 321 320 320 320 321 321 321 323 323 320 332 332 331 331 332 332 330 327 333 332 330 329 326 327
322 321 321 322 321 321 321 321 321 321 319 319 318 319 320 320 321 321 321 319 321 320 321 321 322 322 323 323 324 332 331 331 332 333 330 329 331 334 331 330 330 329 331
320 320 320 322 321 322 323 321 321 321 321 320 320 320 320 321 321 322 322 321 320 321 321 322 323 322 328 324 330 330 331 332 332 332 329 330 331 331 329 330 331 330 330
316 317 320 322 322 323 323 323 323 323 322 322 321 321 322 321 323 323 323 322 322 322 323 323 323 328 326 327 331 333 332 332 332 331 331 331 331 328 330 329 329 330 330
315 317 317 322 323 324 322 322 321 321 321 321 321 321 322 322 321 323 323 322 321 323 324 325 325 326 328 330 330 330 331 332 330 330 329 328 328 327 327 328 329 331 333
314 315 318 321 321 324 322 321 324 323 324 324 322 322 322 324 323 322 324 323 324 326 326 325 326 326 330 329 330 331 330 330 329 328 328 331 330 329 329 329 331 331 331
317 313 318 319 319 321 324 323 325 325 325 323 321 325 326 324 325 326 326 326 327 327 328 327 327 330 329 329 329 330 329 329 329 329 330 331 331 331 330 330 329 329 330
318 314 317 319 317 321 325 325 323 326 324 325 325 326 327 327 325 325 325 325 327 327 327 328 327 328 329 330 330 329 330 329 329 328 330 331 330 329 328 329 328 328 327
320 316 318 321 317 323 325 325 325 326 326 327 323 323 325 325 325 325 325 327 327 327 327 323 329 329 330 330 330 329 329 329 329 329 329 330 329 328 328 328 328 329 329
322 320 318 320 318 319 323 324 323 322 323 326 327 324 324 324 324 326 326 326 326 327 328 327 329 330 329 329 329 328 329 329 329 328 327 328 328 328 327 326 325 326 327

GFSSE_850_thetae_003.txt.gz
Theta_e
324 317 317 318 320 322 320 315 316 320 322 322 319 317 314 310 308 306 310 313 323 326 321 316 322 318 319 340 342 342 342 341 340 341 340 339 339 342 342 337 336 339 336
320 318 320 322 323 321 317 316 317 319 320 319 319 319 314 311 309 307 311 314 324 328 326 324 327 326 316 334 341 342 342 342 339 340 341 340 340 344 338 338 335 336 333
320 320 321 322 321 320 319 317 317 317 318 318 320 318 314 313 312 307 310 314 324 326 327 330 327 328 321 326 338 341 342 342 340 339 341 340 340 345 338 336 333 333 334
320 318 316 318 316 317 317 318 319 320 320 320 316 315 317 317 314 311 309 314 322 325 325 326 328 328 327 321 334 340 341 342 341 340 340 340 341 340 333 330 330 332 332
317 315 315 315 315 316 317 318 320 320 321 320 319 319 323 325 323 314 309 314 320 328 325 328 328 328 328 319 330 337 340 341 341 340 339 340 341 336 332 330 331 329 330
316 315 315 315 316 317 319 319 318 318 319 319 323 323 324 325 324 321 313 314 315 322 328 328 330 327 328 322 324 335 338 339 341 340 340 340 340 336 332 331 330 330 331
316 315 315 315 316 318 316 316 317 319 320 322 322 323 323 325 325 324 320 317 315 317 322 325 329 330 325 327 319 333 338 339 341 339 338 340 338 338 335 331 327 330 331
316 315 315 315 315 316 317 316 317 319 320 319 319 320 322 323 324 324 321 319 315 313 315 324 327 330 327 325 320 328 338 338 341 339 340 340 339 337 335 337 335 332 331
315 315 315 316 314 313 317 319 320 319 319 320 321 321 320 321 322 323 319 321 322 323 314 314 327 329 329 325 322 318 335 338 338 335 339 340 337 335 332 329 329 328 329
314 313 313 313 313 319 320 320 320 320 320 321 320 320 321 322 324 323 320 321 321 321 316 311 324 327 329 326 322 317 333 337 337 336 335 338 335 334 335 332 332 331 332
312 313 314 313 317 319 320 320 319 318 319 320 320 321 321 320 321 321 323 323 320 320 320 315 323 325 328 326 322 318 333 336 337 336 334 335 336 336 332 328 328 325 327
313 312 313 318 319 320 321 320 319 318 319 319 319 319 319 319 319 319 320 320 322 321 322 318 322 324 327 325 324 318 331 336 337 337 336 336 339 333 332 330 329 329 331
313 309 318 320 320 320 321 321 320 319 319 319 320 319 319 317 318 317 318 319 319 320 322 321 322 322 326 324 327 326 329 335 336 337 336 336 337 334 327 329 333 333 333
311 310 319 321 321 320 320 320 321 320 319 319 319 318 319 319 319 319 318 318 318 321 320 321 320 322 325 322 319 319 331 335 336 336 336 335 335 334 334 336 334 333 330
310 319 321 322 321 321 320 321 321 320 319 319 319 319 321 320 318 318 318 319 319 318 319 320 321 323 324 321 318 322 334 335 336 336 334 335 334 337 327 331 331 332 326
315 323 322 323 321 320 320 320 320 319 319 318 318 319 320 320 318 317 317 316 316 318 319 321 322 322 322 322 318 324 333 333 334 335 335 334 334 330 329 330 332 327 326
318 322 322 323 322 321 321 321 321 322 320 318 317 318 320 321 321 321 319 319 320 321 321 321 322 322 321 322 320 325 332 333 334 335 335 335 334 333 330 332 328 327 326
319 320 321 322 321 322 323 322 321 322 322 321 319 317 319 320 321 321 321 320 320 320 321 321 320 323 324 322 322 324 332 332 333 334 333 331 331 327 329 330 328 330 326
316 318 322 322 322 322 322 323 323 324 323 322 321 321 321 321 321 321 321 320 320 319 320 320 321 321 320 321 320 330 332 332 332 332 330 329 327 329 330 331 330 329 329
314 318 319 322 323 323 320 322 323 323 322 321 320 321 321 321 321 322 322 320 319 320 320 320 321 322 321 321 323 332 332 332 332 332 330 328 331 328 330 330 330 330 330
312 319 318 321 323 323 318 322 324 324 324 322 320 320 321 322 323 323 323 321 320 320 321 321 322 322 324 324 329 331 332 331 332 330 330 331 329 329 330 330 330 331 330
311 319 320 319 321 323 321 324 325 325 324 321 322 323 323 323 322 323 323 322 321 320 323 323 323 325 326 326 331 331 331 332 332 331 330 331 328 329 329 329 330 331 331
312 317 319 318 319 324 324 324 325 324 323 322 326 326 326 324 325 324 323 323 321 323 325 324 325 325 325 330 332 330 330 329 328 331 331 329 327 328 327 329 331 332 331
315 315 319 317 321 324 325 325 326 326 324 325 326 326 326 326 325 325 324 325 326 325 325 325 324 325 329 330 330 329 329 328 329 329 330 329 328 328 328 330 330 330 330
316 316 320 318 319 322 324 322 322 326 327 325 323 325 325 325 326 326 326 326 326 325 326 325 326 327 331 329 329 328 328 328 330 330 328 331 330 329 330 329 329 329 328
317 317 319 317 317 318 323 322 321 323 326 327 325 324 323 323 325 326 326 326 326 324 326 326 327 328 328 327 328 329 327 326 329 329 330 330 329 329 328 328 328 329 330

GFSSE_850_thetae_006.txt.gz
Theta_e
332 330 318 318 319 320 322 321 315 314 317 320 321 319 315 312 310 309 307 307 311 316 325 320 320 320 317 335 343 342 342 341 339 339 339 339 339 343 344 340 336 344 337
327 328 319 319 320 321 322 320 315 315 316 319 320 319 318 314 313 312 308 308 311 319 328 326 320 328 317 326 341 343 342 341 340 341 340 339 339 341 343 337 340 339 335
325 327 321 319 321 321 320 318 315 317 318 319 320 319 321 316 315 315 312 308 312 319 328 329 326 326 322 320 338 342 342 342 341 340 341 340 340 341 341 337 335 334 333
325 321 325 319 314 318 316 317 318 319 320 321 320 321 320 319 321 321 317 311 317 321 324 326 329 324 326 319 332 339 341 342 342 340 341 341 341 342 340 335 334 333 333
324 324 323 315 315 316 317 318 318 319 321 321 320 320 320 324 325 325 323 314 322 325 324 326 329 327 325 322 325 336 340 341 342 342 340 341 341 342 338 332 329 330 331
321 321 322 316 315 316 316 317 318 318 319 319 321 320 323 323 325 326 325 320 319 323 324 326 329 330 323 322 319 332 338 340 341 341 341 340 341 340 337 332 330 326 328
320 320 321 318 315 316 316 316 316 317 318 320 321 322 322 323 323 325 326 325 323 324 322 325 325 330 330 322 317 328 337 339 340 341 340 340 341 340 337 334 327 326 330
318 316 321 320 315 315 316 316 315 315 318 320 320 320 319 319 321 323 325 325 323 324 324 318 324 329 330 327 321 323 337 338 340 342 341 340 339 338 335 332 328 331 331
316 317 319 319 318 314 312 314 319 320 320 320 320 320 321 321 321 323 324 325 323 322 322 313 316 327 330 329 324 320 335 338 340 341 340 339 338 336 333 330 330 330 331
318 318 318 319 319 321 322 321 320 320 320 319 318 320 322 321 321 321 324 324 323 322 323 322 312 324 328 329 325 319 329 338 339 337 335 338 337 335 336 332 328 329 331
319 319 319 319 322 323 322 322 321 321 319 319 319 321 321 323 326 327 325 324 322 322 321 322 312 321 327 329 325 318 325 337 337 338 334 336 337 335 332 327 328 330 329
319 319 318 322 322 321 323 324 324 324 321 319 319 320 319 323 323 324 324 324 324 324 322 321 315 321 325 329 328 318 331 335 337 340 334 331 333 334 334 330 331 331 333
320 318 318 323 322 321 324 324 324 325 324 322 321 319 319 319 322 322 323 322 322 323 325 324 322 324 329 329 329 325 329 334 336 340 338 335 335 337 334 331 328 327 326
319 318 323 324 322 321 323 325 325 324 325 325 323 318 321 322 323 321 320 322 323 325 325 324 325 327 326 328 329 328 330 333 335 339 338 336 336 336 332 331 329 330 333
318 323 326 323 322 323 323 325 325 323 324 322 320 318 321 321 319 319 321 322 324 325 323 325 326 327 327 329 330 329 331 334 335 337 338 336 338 337 331 330 333 333 332
318 326 325 326 326 325 325 324 323 325 323 323 317 320 321 319 319 319 322 321 322 324 326 327 326 327 329 329 329 329 332 334 337 337 335 336 336 335 331 334 334 332 331
321 326 325 325 326 326 325 325 324 325 322 324 324 323 322 320 321 320 320 322 324 324 324 326 326 328 329 329 329 329 331 333 337 337 335 334 334 333 334 330 325 326 327
322 325 323 325 327 327 325 326 326 326 323 321 321 321 323 321 321 322 321 320 320 321 324 325 326 328 328 328 328 328 330 332 335 336 336 335 335 332 329 327 327 326 326
322 324 323 326 327 322 324 326 325 323 322 322 321 321 322 322 322 322 323 322 322 325 325 327 326 327 328 328 328 329 331 333 335 336 335 335 331 329 330 330 327 326 325
321 323 321 326 326 321 327 325 325 325 325 323 320 319 321 322 322 321 323 323 322 325 326 326 328 327 327 328 327 329 332 333 334 335 334 333 331 328 329 328 328 326 327
321 324 325 324 325 323 327 328 328 326 323 323 322 323 324 322 321 322 324 322 323 326 326 326 328 328 328 328 328 331 332 333 333 332 331 331 328 327 329 329 330 327 330
320 322 325 325 323 324 327 325 327 325 324 325 324 325 323 323 322 324 323 324 325 323 325 326 328 328 329 328 329 332 332 331 332 332 330 328 330 329 330 330 330 330 332
320 322 324 324 323 325 325 327 327 326 326 326 326 325 325 323 322 323 324 326 325 326 327 327 328 329 328 327 333 330 331 331 331 331 329 331 327 330 330 330 330 330 330
320 322 323 325 323 326 325 328 328 328 329 326 327 325 326 326 325 325 324 324 325 327 325 326 327 329 329 327 331 331 329 330 330 331 330 328 328 330 330 330 331 329 330
321 322 324 326 322 327 323 323 328 330 329 326 325 325 324 327 326 326 326 325 325 325 325 325 326 329 330 331 330 330 329 329 330 329 329 329 329 328 328 329 331 329 327
321 321 324 326 322 327 329 325 326 326 326 326 328 324 323 326 327 327 326 325 325 326 326 326 328 326 329 330 329 325 323 328 329 328 328 327 328 328 330 330 330 330 329

GFSSE_850_thetae_009.txt.gz
Theta_e
332 333 319 319 320 321 321 322 322 316 315 318 319 318 317 313 313 312 312 309 307 310 314 324 321 318 315 317 339 343 343 345 343 341 342 341 339 342 344 340 336 346 339
326 331 326 319 320 320 319 322 322 317 318 320 319 320 320 317 314 314 315 313 308 310 314 328 327 317 318 317 334 343 342 342 341 340 342 340 339 340 344 339 342 343 337
326 329 329 323 317 315 317 319 318 319 320 321 321 323 323 321 316 318 318 316 312 309 318 328 330 324 319 318 326 341 343 342 341 340 339 340 342 339 343 338 341 336 335
326 329 329 329 317 314 314 317 316 317 318 319 321 323 324 324 319 320 324 323 319 313 323 326 330 330 321 322 320 338 342 342 342 341 340 342 342 340 342 339 337 333 334
326 326 328 324 317 315 315 315 316 317 318 319 319 321 324 322 323 325 325 324 324 322 326 326 327 329 326 323 319 331 340 341 342 342 341 341 343 342 342 338 333 335 334
323 322 323 322 320 315 316 316 317 318 319 319 319 318 318 319 320 324 325 325 326 325 325 324 325 329 330 324 323 321 336 340 341 342 341 341 342 341 342 336 332 331 330
322 321 323 323 320 316 315 317 319 316 316 316 316 317 317 319 322 323 323 323 326 327 324 323 326 327 330 329 322 319 332 339 340 341 341 342 341 341 341 337 332 331 326
322 323 324 324 321 319 316 316 316 315 314 314 318 320 320 320 320 320 320 322 325 327 324 321 323 326 328 330 327 321 326 337 339 341 342 341 340 341 340 337 333 332 329
322 322 322 322 323 320 321 321 318 317 319 320 320 320 320 320 320 321 321 325 325 326 324 321 315 322 326 330 329 323 322 337 339 342 340 340 340 340 339 335 335 330 330
321 322 322 321 320 322 325 326 325 322 321 321 320 319 318 319 319 321 321 322 325 325 324 317 315 316 325 329 330 324 321 335 339 341 342 340 339 339 337 335 332 331 331
322 322 322 321 323 325 326 325 325 326 325 323 323 322 320 324 326 326 327 326 325 325 321 324 321 315 319 326 329 325 321 335 338 342 340 338 334 338 336 333 332 329 329
323 323 321 321 326 328 327 325 326 326 326 324 321 319 321 324 324 326 326 326 325 325 321 322 323 317 313 329 330 325 322 335 338 338 338 332 337 336 334 333 331 329 333
324 323 320 324 328 328 327 326 326 326 325 325 323 324 322 320 323 325 324 325 324 324 325 324 324 322 324 329 332 329 326 335 337 339 337 332 334 336 336 332 331 329 325
324 322 325 328 329 330 328 327 326 326 327 325 325 325 323 324 323 323 323 325 324 326 327 326 327 323 324 329 332 329 325 334 336 338 338 333 333 333 334 330 329 329 332
324 322 327 329 330 330 327 327 328 326 325 326 325 325 323 322 323 321 324 324 324 324 325 325 328 325 330 326 333 329 326 335 335 337 338 338 334 336 335 333 329 330 332
322 326 328 329 330 329 327 327 326 326 326 326 326 324 324 324 323 321 321 322 324 323 325 326 328 328 326 329 332 330 330 335 334 335 338 338 336 335 335 332 328 328 331
322 327 329 328 328 327 327 328 326 326 327 326 326 325 326 324 322 322 322 323 322 324 325 327 326 328 327 329 330 329 331 333 333 335 338 337 337 337 335 334 330 332 333
324 326 328 328 327 328 329 329 327 326 324 324 324 318 321 323 323 324 322 324 324 325 326 327 328 327 328 329 328 329 331 329 333 336 338 336 336 336 331 331 334 328 331
324 326 327 328 328 329 329 330 329 326 326 325 322 321 320 322 324 324 323 321 321 323 326 326 326 327 328 329 328 329 330 330 333 336 336 335 335 334 332 334 330 328 327
324 327 328 327 329 326 329 329 330 326 324 324 323 320 321 322 324 325 323 323 322 323 326 327 327 327 328 328 327 331 331 330 335 336 337 335 335 334 331 330 327 327 327
323 327 329 327 328 327 329 330 329 330 329 327 326 324 324 324 324 326 324 325 323 325 325 327 326 326 327 329 327 329 329 333 335 336 336 333 331 329 330 328 326 326 328
324 325 328 327 328 329 331 331 329 328 328 327 326 326 324 325 325 325 325 326 327 324 325 328 328 328 328 329 329 330 334 335 334 334 334 332 331 329 329 327 328 329 328
323 326 327 328 330 331 331 331 331 328 329 327 327 328 326 324 324 325 326 326 326 327 325 325 326 329 328 326 330 331 332 332 332 332 332 331 329 328 328 328 329 327 330
323 326 326 329 331 332 326 331 331 329 329 329 325 327 328 326 325 326 327 327 327 327 327 327 327 329 329 329 329 332 331 329 332 331 329 328 328 329 329 330 328 329 329
322 326 327 329 331 332 331 331 331 331 328 327 326 325 328 327 327 326 326 326 327 327 328 328 328 329 328 329 331 331 330 331 331 330 329 331 330 330 329 330 330 331 328
322 325 327 328 328 331 331 330 331 330 329 328 327 324 326 327 327 327 327 326 326 326 327 327 327 329 329 328 331 330 331 329 330 329 329 330 329 330 330 331 330 330 328